AUSTN41 KBUF-KPSM

Flight info

Callsign AUSTN41
Flight time 0h 54m
Altitude 35000
Route SYR CAM
Aircraft T38/L-DSTUY/P

Departure

Time 2026-04-22 20:26
Airport Buffalo Niagara International Airport (KBUF)

Arrival

Time 2026-04-22 21:20
Airport Portsmouth International Airport at Pease (KPSM)
Time Latitude Longitude Altitude Speed Heading
2026-04-22 20:07 42.94686 -78.73440 717 ft 0 kts 210°
2026-04-22 20:20 42.94678 -78.73447 719 ft 4 kts 220°
2026-04-22 20:21 42.94671 -78.73495 716 ft 6 kts 287°
2026-04-22 20:21 42.94673 -78.73545 716 ft 7 kts 234°
2026-04-22 20:21 42.94674 -78.73628 716 ft 12 kts 296°
2026-04-22 20:21 42.94721 -78.73751 718 ft 16 kts 297°
2026-04-22 20:22 42.94747 -78.73879 716 ft 14 kts 271°
2026-04-22 20:22 42.94752 -78.74020 714 ft 13 kts 271°
2026-04-22 20:22 42.94749 -78.74089 714 ft 1 kts 248°
2026-04-22 20:22 42.94749 -78.74090 714 ft 0 kts 248°
2026-04-22 20:23 42.94725 -78.74129 716 ft 10 kts 217°
2026-04-22 20:23 42.94671 -78.74125 717 ft 7 kts 132°
2026-04-22 20:23 42.94670 -78.74122 717 ft 0 kts 131°
2026-04-22 20:25 42.94602 -78.74003 716 ft 56 kts 128°
2026-04-22 20:25 42.94180 -78.73240 717 ft 139 kts 127°
2026-04-22 20:25 42.93498 -78.72001 905 ft 178 kts 127°
2026-04-22 20:26 42.92735 -78.70394 1268 ft 224 kts 124°
2026-04-22 20:26 42.91892 -78.68552 2308 ft 215 kts 123°
2026-04-22 20:26 42.91158 -78.66858 3850 ft 205 kts 111°
2026-04-22 20:26 42.90999 -78.65000 5025 ft 199 kts 83°
2026-04-22 20:27 42.91131 -78.63181 6216 ft 189 kts 80°
2026-04-22 20:27 42.91299 -78.61342 6995 ft 200 kts 80°
2026-04-22 20:27 42.91468 -78.59483 7954 ft 196 kts 79°
2026-04-22 20:27 42.91642 -78.57625 8807 ft 200 kts 78°
2026-04-22 20:28 42.91827 -78.55708 9589 ft 207 kts 78°
2026-04-22 20:28 42.92002 -78.53713 10413 ft 215 kts 78°
2026-04-22 20:28 42.92166 -78.51665 11362 ft 217 kts 79°
2026-04-22 20:28 42.92318 -78.49606 12295 ft 220 kts 79°
2026-04-22 20:29 42.92461 -78.47505 13087 ft 229 kts 79°
2026-04-22 20:29 42.92605 -78.45276 13744 ft 242 kts 79°
2026-04-22 20:29 42.92760 -78.42910 14149 ft 259 kts 79°
2026-04-22 20:29 42.92936 -78.40444 14773 ft 265 kts 79°
2026-04-22 20:30 42.93113 -78.37878 15292 ft 275 kts 79°
2026-04-22 20:30 42.93277 -78.35306 16208 ft 266 kts 79°
2026-04-22 20:30 42.93439 -78.32818 17073 ft 263 kts 78°
2026-04-22 20:30 42.93624 -78.30259 17512 ft 278 kts 77°
2026-04-22 20:31 42.93845 -78.27588 18054 ft 286 kts 76°
2026-04-22 20:31 42.94087 -78.24917 18867 ft 279 kts 75°
2026-04-22 20:31 42.94336 -78.22290 19368 ft 288 kts 75°
2026-04-22 20:31 42.94626 -78.19539 19833 ft 296 kts 74°
2026-04-22 20:32 42.94952 -78.16762 20498 ft 294 kts 72°
2026-04-22 20:32 42.95301 -78.14037 21307 ft 289 kts 71°
2026-04-22 20:32 42.95671 -78.11344 21961 ft 290 kts 70°
2026-04-22 20:32 42.96079 -78.08610 22433 ft 298 kts 69°
2026-04-22 20:33 42.96530 -78.05830 22994 ft 301 kts 69°
2026-04-22 20:33 42.96862 -78.02991 23693 ft 304 kts 78°
2026-04-22 20:33 42.96996 -78.00099 24268 ft 305 kts 78°
2026-04-22 20:33 42.97097 -77.97181 24728 ft 310 kts 78°
2026-04-22 20:34 42.97196 -77.94208 25141 ft 317 kts 78°
2026-04-22 20:34 42.97300 -77.91184 25592 ft 321 kts 78°
2026-04-22 20:34 42.97405 -77.88142 26149 ft 320 kts 78°
2026-04-22 20:34 42.97508 -77.85105 26697 ft 321 kts 77°
2026-04-22 20:35 42.97615 -77.82044 27130 ft 325 kts 77°
2026-04-22 20:35 42.97731 -77.78968 27521 ft 331 kts 77°
2026-04-22 20:35 42.97860 -77.75782 28004 ft 332 kts 76°
2026-04-22 20:35 42.97990 -77.72675 28537 ft 332 kts 76°
2026-04-22 20:36 42.98127 -77.69521 29002 ft 334 kts 75°
2026-04-22 20:36 42.98281 -77.66329 29380 ft 339 kts 75°
2026-04-22 20:36 42.98457 -77.63096 29777 ft 342 kts 74°
2026-04-22 20:36 42.98650 -77.59857 30225 ft 342 kts 73°
2026-04-22 20:37 42.98855 -77.56620 30663 ft 342 kts 73°
2026-04-22 20:37 42.99072 -77.53384 31031 ft 343 kts 72°
2026-04-22 20:37 42.99314 -77.50125 31312 ft 346 kts 71°
2026-04-22 20:37 42.99586 -77.46840 31589 ft 349 kts 71°
2026-04-22 20:38 42.99885 -77.43539 31944 ft 349 kts 70°
2026-04-22 20:38 43.00200 -77.40292 32340 ft 348 kts 69°
2026-04-22 20:38 43.00534 -77.37009 32655 ft 350 kts 69°
2026-04-22 20:38 43.00872 -77.33694 32884 ft 355 kts 69°
2026-04-22 20:39 43.01203 -77.30331 33139 ft 358 kts 69°
2026-04-22 20:39 43.01539 -77.26952 33483 ft 358 kts 69°
2026-04-22 20:39 43.01878 -77.23584 33849 ft 358 kts 69°
2026-04-22 20:39 43.02224 -77.20200 34142 ft 360 kts 69°
2026-04-22 20:40 43.02588 -77.16777 34279 ft 365 kts 68°
2026-04-22 20:40 43.02981 -77.13335 34466 ft 368 kts 68°
2026-04-22 20:40 43.03395 -77.09893 34772 ft 366 kts 68°
2026-04-22 20:40 43.03832 -77.06471 34952 ft 369 kts 67°
2026-04-22 20:41 43.04334 -77.02950 34673 ft 385 kts 66°
2026-04-22 20:41 43.05474 -76.95738 34917 ft 392 kts 65°
2026-04-22 20:42 43.06751 -76.88362 34914 ft 405 kts 64°
2026-04-22 20:42 43.07456 -76.84610 35101 ft 408 kts 65°
2026-04-22 20:42 43.08039 -76.80771 35270 ft 418 kts 72°
2026-04-22 20:42 43.08463 -76.76829 35379 ft 419 kts 69°
2026-04-22 20:43 43.09084 -76.72941 35370 ft 423 kts 68°
2026-04-22 20:43 43.09560 -76.68898 35367 ft 438 kts 76°
2026-04-22 20:43 43.09512 -76.64653 35441 ft 457 kts 91°
2026-04-22 20:43 43.08872 -76.60342 35568 ft 464 kts 95°
2026-04-22 20:44 43.08193 -76.56011 35634 ft 467 kts 93°
2026-04-22 20:44 43.07694 -76.51578 35292 ft 476 kts 87°
2026-04-22 20:44 43.07499 -76.47042 35089 ft 480 kts 82°
2026-04-22 20:44 43.07533 -76.42454 34954 ft 484 kts 79°
2026-04-22 20:45 43.07722 -76.37840 34916 ft 486 kts 77°
2026-04-22 20:45 43.08042 -76.33265 35141 ft 480 kts 74°
2026-04-22 20:45 43.08440 -76.28779 35104 ft 486 kts 75°
2026-04-22 20:45 43.08836 -76.24083 34933 ft 493 kts 73°
2026-04-22 20:46 43.09805 -76.14793 34787 ft 499 kts 72°
2026-04-22 20:46 43.10581 -76.05268 35042 ft 507 kts 81°
2026-04-22 20:47 43.10584 -76.00443 35172 ft 514 kts 89°
2026-04-22 20:47 43.10057 -75.95510 34850 ft 530 kts 93°
2026-04-22 20:47 43.09535 -75.90555 35247 ft 515 kts 87°
2026-04-22 20:47 43.09432 -75.85777 35789 ft 499 kts 81°
2026-04-22 20:48 43.09631 -75.80980 35147 ft 512 kts 77°
2026-04-22 20:48 43.09979 -75.76066 34795 ft 521 kts 76°
2026-04-22 20:48 43.10885 -75.66266 35135 ft 512 kts 75°
2026-04-22 20:49 43.11357 -75.61477 35507 ft 505 kts 75°
2026-04-22 20:49 43.11841 -75.56730 35644 ft 505 kts 75°
2026-04-22 20:49 43.12321 -75.51891 35122 ft 519 kts 74°
2026-04-22 20:49 43.12854 -75.46983 35136 ft 518 kts 73°
2026-04-22 20:50 43.13408 -75.42133 35253 ft 517 kts 73°
2026-04-22 20:50 43.14016 -75.37267 35160 ft 519 kts 72°
2026-04-22 20:50 43.14352 -75.27398 35205 ft 538 kts 94°
2026-04-22 20:51 43.12131 -75.17500 35202 ft 548 kts 104°
2026-04-22 20:51 43.10022 -75.07474 35049 ft 549 kts 98°
2026-04-22 20:52 43.08531 -74.97224 34933 ft 549 kts 94°
2026-04-22 20:52 43.07573 -74.86861 34871 ft 547 kts 89°
2026-04-22 20:53 43.06961 -74.76462 34795 ft 547 kts 87°
2026-04-22 20:53 43.06551 -74.66089 34883 ft 546 kts 87°
2026-04-22 20:54 43.06173 -74.55724 34883 ft 545 kts 85°
2026-04-22 20:54 43.06153 -74.45415 34928 ft 540 kts 82°
2026-04-22 20:55 43.06461 -74.35235 35047 ft 540 kts 84°
2026-04-22 20:55 43.06046 -74.24977 35378 ft 539 kts 90°
2026-04-22 20:56 43.05667 -74.19854 35163 ft 545 kts 91°
2026-04-22 20:56 43.05270 -74.14682 35056 ft 548 kts 90°
2026-04-22 20:56 43.04306 -74.04332 35065 ft 554 kts 99°
2026-04-22 20:57 43.02499 -73.94076 35015 ft 556 kts 99°
2026-04-22 20:57 43.01042 -73.85514 34984 ft 556 kts 97°
2026-04-22 20:58 42.99572 -73.75143 34927 ft 555 kts 95°
2026-04-22 20:58 42.98509 -73.64733 35021 ft 550 kts 91°
2026-04-22 20:59 42.97994 -73.54356 35082 ft 546 kts 87°
2026-04-22 20:59 42.97888 -73.43986 35065 ft 544 kts 84°
2026-04-22 21:00 42.98063 -73.33683 35132 ft 541 kts 82°
2026-04-22 21:00 42.98422 -73.23489 35541 ft 528 kts 76°
2026-04-22 21:01 42.99089 -73.18532 35050 ft 535 kts 72°
2026-04-22 21:01 42.99903 -73.13566 34984 ft 536 kts 71°
2026-04-22 21:01 43.01009 -73.03514 35219 ft 542 kts 83°
2026-04-22 21:02 43.00918 -72.93123 35088 ft 548 kts 86°
2026-04-22 21:02 43.01007 -72.82702 35024 ft 547 kts 82°
2026-04-22 21:03 43.01553 -72.72386 35103 ft 543 kts 79°
2026-04-22 21:03 43.02388 -72.62149 35143 ft 541 kts 77°
2026-04-22 21:04 43.03388 -72.51955 35186 ft 540 kts 77°
2026-04-22 21:04 43.03942 -72.46899 35057 ft 536 kts 75°
2026-04-22 21:04 43.04586 -72.41812 33497 ft 554 kts 74°
2026-04-22 21:05 43.05382 -72.36503 30749 ft 588 kts 72°
2026-04-22 21:05 43.06346 -72.30954 26072 ft 612 kts 71°
2026-04-22 21:05 43.07532 -72.25028 20718 ft 684 kts 70°
2026-04-22 21:05 43.09094 -72.18762 17861 ft 695 kts 66°
2026-04-22 21:06 43.10887 -72.12777 17304 ft 654 kts 64°
2026-04-22 21:06 43.12686 -72.07267 16934 ft 613 kts 62°
2026-04-22 21:06 43.14459 -72.02366 18311 ft 566 kts 60°
2026-04-22 21:06 43.16184 -71.97626 18401 ft 549 kts 59°
2026-04-22 21:07 43.17954 -71.93042 17989 ft 542 kts 57°
2026-04-22 21:07 43.19778 -71.88517 17325 ft 541 kts 61°
2026-04-22 21:07 43.21055 -71.83631 16410 ft 550 kts 78°
2026-04-22 21:07 43.21361 -71.78356 15035 ft 563 kts 87°
2026-04-22 21:08 43.21434 -71.73481 14851 ft 469 kts 88°
2026-04-22 21:08 43.21486 -71.69290 14153 ft 417 kts 87°
2026-04-22 21:08 43.21597 -71.65422 12519 ft 398 kts 85°
2026-04-22 21:08 43.21763 -71.61682 11236 ft 381 kts 85°
2026-04-22 21:09 43.21934 -71.58147 9680 ft 377 kts 84°
2026-04-22 21:09 43.22124 -71.54615 8728 ft 355 kts 83°
2026-04-22 21:09 43.22363 -71.51325 7675 ft 345 kts 82°
2026-04-22 21:09 43.22650 -71.48158 6860 ft 328 kts 81°
2026-04-22 21:10 43.22952 -71.45133 5855 ft 317 kts 81°
2026-04-22 21:10 43.23315 -71.42090 3985 ft 330 kts 79°
2026-04-22 21:10 43.23838 -71.38996 2992 ft 315 kts 77°
2026-04-22 21:10 43.24400 -71.36289 2930 ft 285 kts 76°
2026-04-22 21:11 43.24954 -71.33773 2732 ft 271 kts 75°
2026-04-22 21:11 43.25525 -71.31303 2352 ft 266 kts 75°
2026-04-22 21:11 43.26095 -71.28922 2132 ft 256 kts 74°
2026-04-22 21:11 43.26613 -71.26725 2452 ft 233 kts 80°
2026-04-22 21:12 43.26849 -71.24499 2524 ft 248 kts 92°
2026-04-22 21:12 43.26753 -71.22093 2996 ft 267 kts 97°
2026-04-22 21:12 43.26665 -71.19353 3040 ft 298 kts 94°
2026-04-22 21:12 43.26623 -71.16515 2947 ft 293 kts 93°
2026-04-22 21:13 43.26632 -71.13971 2912 ft 239 kts 92°
2026-04-22 21:13 43.26681 -71.11927 3081 ft 198 kts 91°
2026-04-22 21:13 43.26764 -71.10160 3743 ft 181 kts 90°
2026-04-22 21:13 43.26822 -71.08395 4332 ft 185 kts 90°
2026-04-22 21:14 43.26882 -71.06526 3884 ft 212 kts 86°
2026-04-22 21:14 43.27086 -71.04447 3579 ft 218 kts 85°
2026-04-22 21:14 43.27263 -71.02401 3548 ft 212 kts 87°
2026-04-22 21:14 43.27378 -71.00381 3442 ft 210 kts 91°
2026-04-22 21:15 43.27381 -70.98388 3331 ft 210 kts 95°
2026-04-22 21:15 43.27207 -70.96440 3240 ft 201 kts 122°
2026-04-22 21:15 43.26289 -70.95144 3255 ft 186 kts 147°
2026-04-22 21:15 43.25251 -70.94060 3146 ft 192 kts 147°
2026-04-22 21:16 43.24190 -70.92934 3072 ft 193 kts 146°
2026-04-22 21:16 43.23033 -70.91982 2711 ft 203 kts 158°
2026-04-22 21:16 43.21740 -70.91186 2442 ft 204 kts 163°
2026-04-22 21:16 43.20437 -70.90620 2170 ft 180 kts 166°
2026-04-22 21:17 43.19287 -70.90181 1981 ft 166 kts 168°
2026-04-22 21:17 43.18176 -70.89833 1884 ft 163 kts 171°
2026-04-22 21:17 43.17066 -70.89491 1860 ft 166 kts 167°
2026-04-22 21:17 43.15969 -70.88903 1674 ft 175 kts 151°
2026-04-22 21:18 43.14911 -70.87941 1238 ft 187 kts 147°
2026-04-22 21:18 43.13850 -70.87013 1009 ft 174 kts 153°
2026-04-22 21:18 43.12813 -70.86213 758 ft 168 kts 153°
2026-04-22 21:18 43.11790 -70.85446 618 ft 168 kts 153°
2026-04-22 21:19 43.10749 -70.84653 394 ft 172 kts 153°
2026-04-22 21:19 43.09714 -70.83847 223 ft 168 kts 153°
2026-04-22 21:19 43.08733 -70.83076 111 ft 152 kts 153°
2026-04-22 21:19 43.07952 -70.82450 86 ft 109 kts 155°
2026-04-22 21:20 43.07378 -70.81994 85 ft 81 kts 145°
2026-04-22 21:20 43.07049 -70.81720 81 ft 45 kts 146°
2026-04-22 21:20 43.06779 -70.81506 82 ft 45 kts 153°
2026-04-22 21:20 43.06557 -70.81286 82 ft 34 kts 120°
2026-04-22 21:21 43.06556 -70.81084 82 ft 0 kts 60°
2026-04-22 21:21 43.06570 -70.81052 83 ft 17 kts 56°
2026-04-22 21:21 43.06691 -70.80981 84 ft 26 kts 333°
2026-04-22 21:22 43.06884 -70.81131 82 ft 37 kts 334°
2026-04-22 21:22 43.07105 -70.81310 85 ft 42 kts 329°
2026-04-22 21:22 43.07322 -70.81482 85 ft 27 kts 342°
2026-04-22 21:22 43.07562 -70.81565 87 ft 38 kts 337°
2026-04-22 21:23 43.07778 -70.81697 87 ft 12 kts 335°
2026-04-22 21:23 43.07786 -70.81702 86 ft 0 kts 335°